King Salmon, AK

5:53 PM AKDT on April 28, 2017 (GMT -0800)
King Salmon

Weather History for PAKN - May, 2014

Change the Weather History Date:

Friday, May 2, 2014

  Actual Average Record
Temperature  
Mean Temperature 48 °F 40 °F  
Max Temperature 69 °F 49 °F 80 °F (1953)
Min Temperature 26 °F 31 °F 7 °F (1949)
Degree Days  
Heating Degree Days 17 25  
Month to date heating degree days 37 50  
Since 1 July heating degree days 8439 9873  
Cooling Degree Days 0    
Month to date cooling degree days 0  
Year to date cooling degree days 0  
Moisture  
Dew Point 35 °F    
Average Humidity 0    
Maximum Humidity 0    
Minimum Humidity 0    
Precipitation  
Precipitation 0.00 in 0.04 in 0.49 in (1988)
Month to date precipitation 0.00 0.07  
Year to date precipitation 3.09 3.52  
Snow  
Snow 0.00 in 0.00 in 1.30 in (2008)
Month to date snowfall 0.0 0.1  
Since 1 July snowfall 36.0 45.9  
Snow Depth 0.00 in    
Sea Level Pressure  
Sea Level Pressure 30.26 in    
Wind  
Wind Speed 6 mph (West)    
Max Wind Speed 16 mph    
Max Gust Speed 20 mph    
Visibility 7 miles    
Events Fog    
T = Trace of Precipitation, MM = Missing Value Source: NWS Daily Summary

Daily Weather History Graph

Daily Weather History Graph

Search for Another Location

Airport or City:

Trip Planner

Search our weather history database for the weather conditions in past years. The results will help you decide how hot, cold, wet, or windy it might be!

Date:

Astronomy

May. 02, 2014 Rise Set
Actual Time 6:27 AM AKDT 10:20 PM AKDT
Civil Twilight 5:37 AM AKDT 11:11 PM AKDT
Nautical Twilight 4:22 AM AKDT 12:28 AM AKDT
Astronomical Twilight 2:56 AM AKDT 1:51 AM AKDT
Moon 8:59 AM AKDT (5/2) 1:16 AM AKDT (5/2)
Length of Visible Light 17h 34m
Length of Day
15h 53m
Waxing Crescent, 13% of the Moon is Illuminated
May 2
Waxing Crescent
May 6
First Quarter
May 14
Full
May 21
Last Quarter
May 28
New

Hourly Weather History & Observations

Time (AKDT) Temp. Windchill Dew Point Humidity Pressure Visibility Wind Dir Wind Speed Gust Speed Precip Events Conditions
12:54 AM 35.1 °F 31.0 °F 33.1 °F 92% 30.40 in 10.0 mi NNE 4.6 mph - N/A   Scattered Clouds
1:54 AM 36.0 °F - 34.0 °F 93% 30.39 in 10.0 mi Calm Calm - N/A   Partly Cloudy
2:54 AM 34.0 °F - 33.1 °F 96% 30.38 in 10.0 mi Calm Calm - N/A   Clear
3:54 AM 32.0 °F 27.5 °F 32.0 °F 100% 30.36 in 10.0 mi SSE 4.6 mph - N/A   Clear
4:54 AM 32.0 °F - 32.0 °F 100% 30.34 in 10.0 mi Calm Calm - N/A   Clear
5:24 AM 30.2 °F - 30.2 °F 100% 30.34 in 9.0 mi Calm Calm - N/A   Scattered Clouds
5:54 AM 26.1 °F - 26.1 °F 100% 30.33 in 2.0 mi Calm Calm - N/A   Scattered Clouds
6:01 AM 26.6 °F 22.6 °F 26.6 °F 100% 30.33 in 1.0 mi East 3.5 mph - N/A   Scattered Clouds
6:20 AM 26.6 °F - 26.6 °F 100% 30.32 in 0.8 mi Calm Calm - N/A   Scattered Clouds
6:29 AM 26.6 °F - 26.6 °F 100% 30.32 in 1.0 mi Calm Calm - N/A   Scattered Clouds
6:38 AM 26.6 °F - 26.6 °F 100% 30.32 in 0.8 mi Calm Calm - N/A   Scattered Clouds
6:54 AM 26.1 °F - 26.1 °F 100% 30.32 in 0.8 mi Calm Calm - N/A   Scattered Clouds
7:15 AM 28.4 °F - 28.4 °F 100% 30.32 in 1.0 mi Calm Calm - N/A   Scattered Clouds
7:40 AM 28.4 °F - 28.4 °F 100% 30.31 in 3.0 mi Calm Calm - N/A   Scattered Clouds
7:54 AM 30.9 °F - 30.9 °F 100% 30.31 in 10.0 mi Calm Calm - N/A   Partly Cloudy
8:07 AM 32.0 °F - 32.0 °F 100% 30.31 in 0.5 mi Calm Calm - N/A Fog Light Freezing Fog
8:54 AM 35.1 °F 32.2 °F 35.1 °F 100% 30.31 in 0.5 mi SW 3.5 mph - N/A Fog Fog
9:01 AM 35.6 °F 32.8 °F 35.6 °F 100% 30.30 in 0.2 mi WSW 3.5 mph - N/A Fog Fog
9:18 AM 35.6 °F - 35.6 °F 100% 30.30 in 1.0 mi Calm Calm - N/A   Mist
9:22 AM 37.4 °F - 37.4 °F 100% 30.30 in 3.0 mi Calm Calm - N/A   Mostly Cloudy
9:30 AM 37.4 °F - 37.4 °F 100% 30.30 in 10.0 mi Calm Calm - N/A   Partly Cloudy
9:54 AM 39.9 °F - 39.0 °F 97% 30.29 in 10.0 mi Calm Calm - N/A   Clear
10:54 AM 48.9 °F - 39.0 °F 69% 30.27 in 10.0 mi WSW 3.5 mph - N/A   Clear
11:54 AM 54.0 °F - 39.0 °F 57% 30.25 in 10.0 mi Variable 3.5 mph - N/A   Clear
12:54 PM 59.0 °F - 37.9 °F 46% 30.23 in 10.0 mi Variable 4.6 mph - N/A   Clear
1:54 PM 62.1 °F - 39.0 °F 43% 30.21 in 10.0 mi Variable 6.9 mph - N/A   Clear
2:54 PM 64.9 °F - 39.9 °F 40% 30.19 in 10.0 mi NNW 6.9 mph - N/A   Clear
3:54 PM 66.9 °F - 39.0 °F 36% 30.17 in 10.0 mi NW 6.9 mph - N/A   Clear
4:54 PM 68.0 °F - 39.0 °F 35% 30.15 in 10.0 mi West 6.9 mph - N/A   Clear
5:54 PM 68.0 °F - 39.0 °F 35% 30.14 in 10.0 mi NW 9.2 mph - N/A   Clear
6:54 PM 66.0 °F - 39.9 °F 38% 30.14 in 10.0 mi West 11.5 mph - N/A   Clear
7:54 PM 62.1 °F - 39.0 °F 43% 30.14 in 10.0 mi WSW 13.8 mph - N/A   Clear
8:54 PM 60.1 °F - 41.0 °F 49% 30.13 in 10.0 mi West 12.7 mph - N/A   Clear
9:54 PM 55.0 °F - 39.9 °F 57% 30.12 in 10.0 mi West 10.4 mph - N/A   Partly Cloudy
10:54 PM 51.1 °F - 39.9 °F 66% 30.13 in 10.0 mi West 9.2 mph - N/A   Partly Cloudy
11:54 PM 45.0 °F 39.7 °F 39.9 °F 82% 30.14 in 10.0 mi SSE 10.4 mph - N/A   Clear